Regional Weather Roundup
Issued by NWS Albany, NY

Home | Current Version | Previous Version | Text Only | Print | Product List | Glossary On
Versions: 1 2 3 4 5 6 7 8 9 10 11 12 13 14 15 16 17 18 19 20 21 22 23 24 25 26 27 28
000
ASUS41 KALY 211610
RWRALY

NEW YORK STATE HOURLY WEATHER ROUNDUP
NATIONAL WEATHER SERVICE ALBANY NY
1200 PM EDT SAT APR 21 2018

NOTE: "FAIR" INDICATES FEW OR NO CLOUDS BELOW 12,000 FEET WITH NO
SIGNIFICANT WEATHER AND/OR NO OBSTRUCTIONS TO VISIBILITY.

NYZ032-033-038>043-046>054-057>066-NYZ062>081-082-084-211700-
EAST


CITY           SKY/WX    TMP DP  RH WIND       PRES   REMARKS
ALBANY         FAIR      52  24  33 W13       30.36F
GLENS FALLS    FAIR      51  20  29 NW8       30.32F
POUGHKEEPSIE   FAIR      53  23  31 NW14G22   30.35F
NEWBURGH       SUNNY     52  28  40 SW8       30.37F
MONTGOMERY     FAIR      53  25  33 VRB3      30.35F
WHITE PLAINS   FAIR      51  23  33 W15       30.35F
ISLIP          FAIR      54  23  30 NW14      30.35F
NEW YORK CITY  FAIR      54  24  31 NW12G18   30.37F
CENTRAL PARK   FAIR      54  21  27 W9G16     30.40F
$$

NYZ005>009-017-018-044>046-055-056-211700-
CENTRAL


CITY           SKY/WX    TMP DP  RH WIND       PRES   REMARKS
FULTON         FAIR      48  28  46 NW8       30.44F
SYRACUSE       FAIR      50  24  36 NW9G21    30.43F
ROME           FAIR      49  28  44 W14G21    30.42F
ELMIRA         FAIR      51  21  30 NW10G20   30.42F
BINGHAMTON     FAIR      46  19  34 NW12G21   30.39F
MONTICELLO     FAIR      48  23  37 NW16      30.37F
$$

NYZ026>034-041>043-087-211700-
NORTH


CITY           SKY/WX    TMP DP  RH WIND       PRES   REMARKS
WATERTOWN      FAIR      48  27  44 W10       30.42F
FORT DRUM      NOT AVBL
OGDENSBURG     FAIR      50  21  31 W12G17    30.39F
MASSENA        FAIR      48  23  37 W13       30.38F
SARANAC LAKE   FAIR      42  16  34 W9G20     30.30F
PLATTSBURGH    FAIR      52  19  27 NW14G22   30.32F
$$

NYZ001>004-010>016-019>021-085-211700-
WEST


CITY           SKY/WX    TMP DP  RH WIND       PRES   REMARKS
NIAGARA FALLS  FAIR      50  26  39 W10       30.46F
BUFFALO        PTSUNNY   45  27  49 W12       30.46F
DUNKIRK        FAIR      43  29  57 W8        30.48F
JAMESTOWN      FAIR      45  24  43 E5        30.44
WELLSVILLE     FAIR      46  21  37 N5        30.42F
ROCHESTER      FAIR      51  23  33 VRB7      30.44F
PENN YAN       FAIR      50  19  29 NW13G18   30.43F
$$

             KEY
       WCI = WIND CHILL INDEX
       VSB = VISIBILITY
       HX  = HEAT INDEX
$$




USA.gov is the U.S. government's official web portal to all federal, state and local government web resources and services.